| time (UTC) | temp F | wind direction | speed MPH | gust MPH | rain 1hr in | rain 24hr in | rain mn in | humidity % | barometer mb |
| 20260503172004 | 76 | 258 | 2.0 | 6.0 | 0.00 | 0.01 | 0.01 | 50 | 1023.2 |
| 20260503171504 | 76 | 256 | 2.0 | 7.0 | 0.00 | 0.01 | 0.01 | 53 | 1023.3 |
| 20260503171003 | 76 | 179 | 3.0 | 7.0 | 0.00 | 0.01 | 0.01 | 52 | 1023.4 |
| 20260503170503 | 76 | 186 | 3.0 | 8.0 | 0.00 | 0.01 | 0.01 | 53 | 1023.6 |
| 20260503151003 | 68 | 273 | 2.0 | 4.0 | 0.00 | 0.01 | 0.01 | 67 | 1023.8 |
| 20260503150503 | 68 | 187 | 2.0 | 6.0 | 0.00 | 0.01 | 0.01 | 67 | 1023.7 |
| 20260503131003 | 52 | 0 | 0.0 | 0.0 | 0.00 | 0.01 | 0.01 | 90 | 1023.4 |
| 20260503130503 | 52 | 0 | 0.0 | 0.0 | 0.00 | 0.01 | 0.01 | 90 | 1023.4 |
| 20260503110503 | 49 | 0 | 0.0 | 0.0 | 0.00 | 0.00 | 0.00 | 91 | 1022.3 |
| 20260503081503 | 51 | 0 | 0.0 | 0.0 | 0.00 | 0.01 | 0.00 | 92 | 1021.7 |
| 20260503081003 | 51 | 0 | 0.0 | 0.0 | 0.00 | 0.01 | 0.00 | 92 | 1021.6 |
| 20260503080503 | 51 | 0 | 0.0 | 0.0 | 0.00 | 0.01 | 0.00 | 92 | 1021.7 |
| 20260503072503 | 51 | 0 | 0.0 | 0.0 | 0.00 | 0.01 | 0.00 | 93 | 1021.5 |
| 20260503072003 | 51 | 0 | 0.0 | 0.0 | 0.00 | 0.01 | 0.00 | 93 | 1021.7 |
| 20260503071503 | 51 | 0 | 0.0 | 0.0 | 0.00 | 0.01 | 0.00 | 93 | 1021.7 |
| 20260503071003 | 51 | 0 | 0.0 | 0.0 | 0.00 | 0.01 | 0.00 | 93 | 1021.6 |
| 20260503070503 | 51 | 0 | 0.0 | 0.0 | 0.00 | 0.01 | 0.00 | 92 | 1021.7 |
| 20260503055024 | 53 | 0 | 0.0 | 0.0 | 0.00 | 0.01 | 0.00 | 93 | 1021.6 |
| 20260503054503 | 53 | 0 | 0.0 | 0.0 | 0.00 | 0.01 | 0.00 | 93 | 1021.6 |
| 20260503054003 | 53 | 0 | 0.0 | 0.0 | 0.00 | 0.01 | 0.00 | 93 | 1021.6 |
| 20260503053503 | 53 | 0 | 0.0 | 0.0 | 0.00 | 0.01 | 0.00 | 93 | 1021.6 |
| 20260503053024 | 53 | 0 | 0.0 | 0.0 | 0.00 | 0.01 | 0.00 | 93 | 1021.5 |
| 20260503052503 | 53 | 0 | 0.0 | 0.0 | 0.00 | 0.01 | 0.00 | 93 | 1021.6 |
| 20260503052024 | 53 | 0 | 0.0 | 0.0 | 0.00 | 0.01 | 0.00 | 93 | 1021.5 |
| 20260503051503 | 53 | 0 | 0.0 | 0.0 | 0.00 | 0.01 | 0.00 | 93 | 1021.5 |
| 20260503051003 | 53 | 0 | 0.0 | 0.0 | 0.00 | 0.01 | 0.00 | 93 | 1021.5 |
| 20260503044505 | 54 | 0 | 0.0 | 0.0 | 0.00 | 0.01 | 0.01 | 93 | 1021.7 |
| 20260503044028 | 54 | 0 | 0.0 | 0.0 | 0.00 | 0.01 | 0.01 | 93 | 1021.6 |
| 20260503043504 | 54 | 0 | 0.0 | 0.0 | 0.00 | 0.01 | 0.01 | 93 | 1021.5 |
| 20260503043004 | 54 | 0 | 0.0 | 0.0 | 0.00 | 0.01 | 0.01 | 93 | 1021.5 |
| 20260503042504 | 54 | 0 | 0.0 | 0.0 | 0.00 | 0.01 | 0.01 | 93 | 1021.6 |
| 20260503042004 | 54 | 0 | 0.0 | 0.0 | 0.00 | 0.01 | 0.01 | 93 | 1021.5 |
| 20260503041504 | 54 | 0 | 0.0 | 0.0 | 0.00 | 0.01 | 0.01 | 93 | 1021.5 |
| 20260503041004 | 54 | 0 | 0.0 | 0.0 | 0.00 | 0.01 | 0.01 | 93 | 1021.5 |
| 20260503040504 | 54 | 0 | 0.0 | 0.0 | 0.00 | 0.01 | 0.01 | 93 | 1021.5 |
| 20260503040004 | 54 | 0 | 0.0 | 0.0 | 0.00 | 0.01 | 0.01 | 93 | 1021.5 |
| 20260503035504 | 55 | 0 | 0.0 | 0.0 | 0.00 | 0.01 | 0.01 | 93 | 1021.6 |
| 20260503035004 | 55 | 0 | 0.0 | 0.0 | 0.00 | 0.01 | 0.01 | 93 | 1021.7 |
| 20260503034504 | 55 | 0 | 0.0 | 0.0 | 0.00 | 0.01 | 0.01 | 93 | 1021.7 |
| 20260503034004 | 55 | 0 | 0.0 | 0.0 | 0.00 | 0.01 | 0.01 | 93 | 1021.5 |
| 20260503033525 | 55 | 0 | 0.0 | 0.0 | 0.00 | 0.01 | 0.01 | 93 | 1021.5 |
| 20260503033004 | 55 | 0 | 0.0 | 0.0 | 0.00 | 0.01 | 0.01 | 92 | 1021.5 |
| 20260503032504 | 55 | 0 | 0.0 | 0.0 | 0.00 | 0.01 | 0.01 | 92 | 1021.4 |
| 20260503032004 | 56 | 0 | 0.0 | 0.0 | 0.00 | 0.01 | 0.01 | 92 | 1021.5 |
| 20260503031504 | 56 | 0 | 0.0 | 0.0 | 0.00 | 0.01 | 0.01 | 92 | 1021.3 |
| 20260503031004 | 56 | 0 | 0.0 | 0.0 | 0.00 | 0.01 | 0.01 | 92 | 1021.3 |
| 20260503030525 | 56 | 0 | 0.0 | 0.0 | 0.00 | 0.01 | 0.01 | 92 | 1021.4 |
| 20260503030004 | 56 | 0 | 0.0 | 0.0 | 0.00 | 0.01 | 0.01 | 91 | 1021.4 |
| 20260503025504 | 56 | 0 | 0.0 | 0.0 | 0.00 | 0.01 | 0.01 | 91 | 1021.3 |
| 20260503025004 | 56 | 0 | 0.0 | 0.0 | 0.00 | 0.01 | 0.01 | 91 | 1021.3 |
| 20260503024504 | 57 | 0 | 0.0 | 0.0 | 0.00 | 0.01 | 0.01 | 91 | 1021.3 |
| 20260503024004 | 57 | 0 | 0.0 | 0.0 | 0.00 | 0.01 | 0.01 | 90 | 1021.1 |
| 20260503023525 | 57 | 0 | 0.0 | 0.0 | 0.00 | 0.01 | 0.01 | 90 | 1021.0 |
| 20260503023004 | 57 | 0 | 0.0 | 0.0 | 0.00 | 0.01 | 0.01 | 90 | 1021.1 |
| 20260503022504 | 57 | 0 | 0.0 | 0.0 | 0.00 | 0.01 | 0.01 | 89 | 1021.0 |
| 20260503022004 | 58 | 0 | 0.0 | 0.0 | 0.00 | 0.01 | 0.01 | 89 | 1020.9 |
| 20260503021504 | 58 | 0 | 0.0 | 0.0 | 0.00 | 0.01 | 0.01 | 88 | 1020.9 |
| 20260503021004 | 58 | 0 | 0.0 | 0.0 | 0.00 | 0.01 | 0.01 | 88 | 1020.9 |
| 20260503020504 | 59 | 0 | 0.0 | 0.0 | 0.00 | 0.01 | 0.01 | 87 | 1020.8 |
| 20260503020004 | 59 | 0 | 0.0 | 0.0 | 0.00 | 0.01 | 0.01 | 87 | 1020.7 |
| 20260503015504 | 59 | 0 | 0.0 | 0.0 | 0.00 | 0.02 | 0.01 | 86 | 1020.7 |
| 20260503015004 | 59 | 0 | 0.0 | 0.0 | 0.00 | 0.02 | 0.01 | 86 | 1020.6 |
| 20260503014525 | 59 | 0 | 0.0 | 0.0 | 0.00 | 0.03 | 0.01 | 85 | 1020.6 |
| 20260503014004 | 60 | 0 | 0.0 | 0.0 | 0.00 | 0.03 | 0.01 | 85 | 1020.5 |
| 20260503013525 | 60 | 0 | 0.0 | 0.0 | 0.00 | 0.03 | 0.01 | 84 | 1020.5 |
| 20260503013004 | 61 | 0 | 0.0 | 0.0 | 0.00 | 0.03 | 0.01 | 84 | 1020.3 |
| 20260503012504 | 61 | 0 | 0.0 | 0.0 | 0.00 | 0.04 | 0.01 | 84 | 1020.4 |
| 20260503012004 | 61 | 0 | 0.0 | 0.0 | 0.00 | 0.05 | 0.01 | 84 | 1020.3 |
| 20260503011525 | 62 | 0 | 0.0 | 0.0 | 0.00 | 0.05 | 0.01 | 82 | 1020.2 |
| 20260503011005 | 62 | 0 | 0.0 | 0.0 | 0.00 | 0.05 | 0.01 | 82 | 1020.1 |
| 20260503010504 | 63 | 0 | 0.0 | 0.0 | 0.00 | 0.06 | 0.01 | 82 | 1020.0 |
| 20260503010004 | 64 | 0 | 0.0 | 0.0 | 0.00 | 0.06 | 0.01 | 81 | 1019.9 |
| 20260503005525 | 64 | 0 | 0.0 | 0.0 | 0.00 | 0.06 | 0.01 | 80 | 1019.9 |
| 20260503005004 | 65 | 0 | 0.0 | 0.0 | 0.00 | 0.07 | 0.01 | 80 | 1019.7 |
| 20260503004504 | 66 | 0 | 0.0 | 0.0 | 0.00 | 0.07 | 0.01 | 78 | 1019.6 |
| 20260503004004 | 66 | 0 | 0.0 | 0.0 | 0.00 | 0.08 | 0.01 | 76 | 1019.7 |
| 20260503003525 | 67 | 0 | 0.0 | 0.0 | 0.00 | 0.08 | 0.01 | 74 | 1019.6 |
| 20260503003025 | 67 | 0 | 0.0 | 0.0 | 0.00 | 0.08 | 0.01 | 74 | 1019.6 |
| 20260503002525 | 68 | 0 | 0.0 | 0.0 | 0.00 | 0.08 | 0.01 | 67 | 1019.6 |
| 20260503002004 | 68 | 0 | 0.0 | 0.0 | 0.00 | 0.08 | 0.01 | 66 | 1019.6 |
| 20260503001504 | 70 | 0 | 0.0 | 0.0 | 0.00 | 0.08 | 0.01 | 67 | 1019.6 |
| 20260503001004 | 70 | 0 | 0.0 | 0.0 | 0.00 | 0.08 | 0.01 | 66 | 1019.6 |
| 20260503000504 | 71 | 0 | 0.0 | 0.0 | 0.00 | 0.08 | 0.01 | 63 | 1019.6 |
| 20260503000004 | 72 | 90 | 0.0 | 1.0 | 0.00 | 0.08 | 0.01 | 58 | 1019.6 |
| 20260502235504 | 72 | 88 | 0.0 | 3.0 | 0.00 | 0.09 | 0.01 | 56 | 1019.5 |
| 20260502235004 | 73 | 71 | 0.0 | 3.0 | 0.00 | 0.09 | 0.01 | 51 | 1019.5 |
| 20260502234504 | 73 | 38 | 1.0 | 4.0 | 0.00 | 0.09 | 0.01 | 51 | 1019.6 |
| 20260502234025 | 73 | 21 | 1.0 | 4.0 | 0.00 | 0.09 | 0.01 | 51 | 1019.6 |
| 20260502233504 | 74 | 339 | 2.0 | 4.0 | 0.00 | 0.09 | 0.01 | 49 | 1019.6 |
| 20260502233004 | 74 | 336 | 2.0 | 4.0 | 0.00 | 0.10 | 0.01 | 49 | 1019.5 |
| 20260502232505 | 74 | 341 | 2.0 | 6.0 | 0.00 | 0.11 | 0.01 | 49 | 1019.5 |
| 20260502232004 | 74 | 351 | 2.0 | 6.0 | 0.00 | 0.12 | 0.01 | 48 | 1019.5 |
| 20260502231504 | 74 | 4 | 2.0 | 8.0 | 0.00 | 0.13 | 0.01 | 50 | 1019.7 |
| 20260502231004 | 73 | 360 | 3.0 | 8.0 | 0.00 | 0.14 | 0.01 | 48 | 1019.5 |
| 20260502230504 | 73 | 355 | 3.0 | 6.0 | 0.00 | 0.15 | 0.01 | 48 | 1019.5 |
| 20260502230004 | 73 | 339 | 3.0 | 9.0 | 0.00 | 0.16 | 0.01 | 48 | 1019.6 |
| 20260502225504 | 74 | 343 | 3.0 | 9.0 | 0.00 | 0.17 | 0.01 | 46 | 1019.6 |
| 20260502225004 | 75 | 10 | 2.0 | 8.0 | 0.00 | 0.18 | 0.01 | 47 | 1019.5 |
| 20260502224504 | 75 | 2 | 3.0 | 10.0 | 0.00 | 0.19 | 0.01 | 46 | 1019.5 |
| 20260502224004 | 75 | 354 | 3.0 | 10.0 | 0.00 | 0.19 | 0.01 | 47 | 1019.6 |
| 20260502223504 | 76 | 21 | 2.0 | 10.0 | 0.00 | 0.20 | 0.01 | 47 | 1019.5 |
| 20260502223004 | 75 | 25 | 2.0 | 6.0 | 0.00 | 0.20 | 0.01 | 47 | 1019.5 |
| 20260502222504 | 74 | 359 | 3.0 | 13.0 | 0.00 | 0.21 | 0.01 | 51 | 1019.5 |
| 20260502222004 | 74 | 350 | 4.0 | 13.0 | 0.00 | 0.21 | 0.01 | 49 | 1019.5 |
| 20260502221525 | 73 | 341 | 3.0 | 9.0 | 0.00 | 0.21 | 0.01 | 49 | 1019.5 |
| 20260502221004 | 73 | 338 | 2.0 | 6.0 | 0.00 | 0.21 | 0.01 | 52 | 1019.6 |
| 20260502220504 | 73 | 340 | 2.0 | 8.0 | 0.00 | 0.21 | 0.01 | 51 | 1019.5 |
| 20260502220004 | 73 | 335 | 3.0 | 8.0 | 0.00 | 0.22 | 0.01 | 51 | 1019.5 |
| 20260502215504 | 74 | 324 | 5.0 | 11.0 | 0.00 | 0.23 | 0.01 | 50 | 1019.5 |
| 20260502215025 | 73 | 323 | 6.0 | 11.0 | 0.00 | 0.23 | 0.01 | 47 | 1019.4 |
| 20260502214525 | 74 | 338 | 4.0 | 9.0 | 0.00 | 0.24 | 0.01 | 47 | 1019.4 |
| 20260502214004 | 74 | 355 | 4.0 | 11.0 | 0.00 | 0.24 | 0.01 | 48 | 1019.4 |
| 20260502213504 | 74 | 340 | 4.0 | 11.0 | 0.00 | 0.25 | 0.01 | 47 | 1019.5 |
| 20260502213004 | 74 | 335 | 4.0 | 11.0 | 0.00 | 0.26 | 0.01 | 48 | 1019.5 |
| 20260502212504 | 74 | 338 | 5.0 | 14.0 | 0.00 | 0.27 | 0.01 | 48 | 1019.5 |
| 20260502212004 | 74 | 340 | 4.0 | 14.0 | 0.00 | 0.28 | 0.01 | 48 | 1019.5 |
| 20260502211504 | 75 | 1 | 4.0 | 10.0 | 0.00 | 0.28 | 0.01 | 48 | 1019.6 |
| 20260502211004 | 75 | 16 | 3.0 | 10.0 | 0.00 | 0.29 | 0.01 | 49 | 1019.6 |
| 20260502210504 | 75 | 16 | 3.0 | 10.0 | 0.00 | 0.29 | 0.01 | 49 | 1019.7 |
| 20260502210004 | 74 | 9 | 3.0 | 11.0 | 0.00 | 0.29 | 0.01 | 48 | 1019.8 |
| 20260502205504 | 74 | 19 | 3.0 | 11.0 | 0.00 | 0.29 | 0.01 | 49 | 1019.7 |
| 20260502205005 | 75 | 29 | 3.0 | 8.0 | 0.00 | 0.29 | 0.01 | 49 | 1019.8 |
| 20260502204503 | 75 | 29 | 3.0 | 8.0 | 0.00 | 0.29 | 0.01 | 49 | 1019.8 |
| 20260502204004 | 75 | 26 | 2.0 | 6.0 | 0.00 | 0.29 | 0.01 | 52 | 1020.0 |
| 20260502203504 | 75 | 356 | 3.0 | 10.0 | 0.00 | 0.29 | 0.01 | 53 | 1020.1 |
| 20260502203003 | 74 | 338 | 4.0 | 10.0 | 0.00 | 0.30 | 0.01 | 50 | 1020.1 |
| 20260502202525 | 74 | 347 | 3.0 | 8.0 | 0.00 | 0.30 | 0.01 | 50 | 1020.1 |
| 20260502202004 | 74 | 17 | 2.0 | 7.0 | 0.00 | 0.30 | 0.01 | 51 | 1020.2 |
| 20260502201503 | 74 | 347 | 3.0 | 9.0 | 0.00 | 0.30 | 0.01 | 49 | 1020.2 |
| 20260502201004 | 73 | 360 | 4.0 | 11.0 | 0.00 | 0.30 | 0.01 | 51 | 1020.2 |
| 20260502200524 | 74 | 27 | 4.0 | 11.0 | 0.00 | 0.30 | 0.01 | 48 | 1020.3 |
| 20260502200024 | 74 | 38 | 3.0 | 9.0 | 0.00 | 0.30 | 0.01 | 50 | 1020.3 |
| 20260502195503 | 74 | 346 | 2.0 | 9.0 | 0.00 | 0.30 | 0.01 | 52 | 1020.4 |
| 20260502195004 | 73 | 7 | 3.0 | 12.0 | 0.00 | 0.30 | 0.01 | 52 | 1020.4 |
| 20260502194503 | 73 | 68 | 3.0 | 12.0 | 0.00 | 0.30 | 0.01 | 49 | 1020.4 |
| 20260502194003 | 73 | 84 | 2.0 | 8.0 | 0.00 | 0.30 | 0.01 | 52 | 1020.5 |
| 20260502193525 | 72 | 324 | 5.0 | 15.0 | 0.00 | 0.30 | 0.01 | 51 | 1020.6 |
| 20260502193003 | 72 | 330 | 7.0 | 15.0 | 0.00 | 0.30 | 0.01 | 50 | 1020.7 |
| 20260502192504 | 72 | 342 | 4.0 | 13.0 | 0.00 | 0.30 | 0.01 | 51 | 1020.8 |
| 20260502192003 | 72 | 330 | 3.0 | 8.0 | 0.00 | 0.30 | 0.01 | 53 | 1020.7 |
| 20260502191504 | 72 | 330 | 5.0 | 12.0 | 0.00 | 0.30 | 0.01 | 53 | 1020.8 |
| 20260502191004 | 72 | 335 | 4.0 | 12.0 | 0.00 | 0.30 | 0.01 | 50 | 1021.0 |
| 20260502190504 | 72 | 1 | 2.0 | 8.0 | 0.00 | 0.30 | 0.01 | 53 | 1021.0 |
| 20260502190004 | 72 | 23 | 2.0 | 10.0 | 0.00 | 0.30 | 0.01 | 51 | 1021.1 |
| 20260502185504 | 72 | 348 | 4.0 | 12.0 | 0.00 | 0.30 | 0.01 | 51 | 1021.2 |
| 20260502185025 | 72 | 337 | 5.0 | 12.0 | 0.00 | 0.30 | 0.01 | 52 | 1021.3 |
| 20260502184504 | 71 | 338 | 6.0 | 12.0 | 0.00 | 0.30 | 0.01 | 51 | 1021.4 |
| 20260502184025 | 71 | 342 | 5.0 | 14.0 | 0.00 | 0.30 | 0.01 | 50 | 1021.4 |
| 20260502183504 | 72 | 350 | 4.0 | 14.0 | 0.00 | 0.30 | 0.01 | 51 | 1021.4 |
| 20260502183004 | 72 | 6 | 3.0 | 12.0 | 0.00 | 0.30 | 0.01 | 52 | 1021.4 |
| 20260502182525 | 71 | 5 | 2.0 | 6.0 | 0.00 | 0.30 | 0.01 | 57 | 1021.6 |
| 20260502182004 | 71 | 20 | 2.0 | 6.0 | 0.00 | 0.30 | 0.01 | 50 | 1021.6 |
| 20260502181504 | 71 | 348 | 4.0 | 10.0 | 0.00 | 0.30 | 0.01 | 54 | 1021.7 |
| 20260502181004 | 71 | 351 | 5.0 | 10.0 | 0.00 | 0.30 | 0.01 | 53 | 1021.7 |
| 20260502180504 | 71 | 32 | 4.0 | 9.0 | 0.00 | 0.30 | 0.01 | 53 | 1021.7 |